Weather History for Watonga, OK

Change the Weather History Date:

Saturday, August 30, 2014

  Actual Average Record
Temperature  
Mean Temperature 82 °F -  
Max Temperature 96 °F 91 °F 104 °F (1983)
Min Temperature 67 °F 67 °F 55 °F (1988)
Cooling Degree Days 16    
Growing Degree Days 32 (Base 50)    
Moisture  
Dew Point 65 °F    
Average Humidity 66    
Maximum Humidity 100    
Minimum Humidity 26    
Precipitation  
Precipitation 0.00 in - - ()
Sea Level Pressure  
Sea Level Pressure 29.95 in    
Wind  
Wind Speed 3 mph (South)    
Max Wind Speed 8 mph    
Max Gust Speed -    
Visibility 10 miles    
Events      
Averages and records for this station are not official NWS values.
T = Trace of Precipitation, MM = Missing Value Source: NWS Daily Summary

Daily Weather History Graph

Daily Weather History Graph

Search for Another Location

Airport:

Trip Planner

Search our weather history database for the weather conditions in past years. The results will help you decide how hot, cold, wet, or windy it might be!

Date:

Astronomy

Aug. 30, 2014 Rise Set
Actual Time 7:04 AM CDT 8:03 PM CDT
Civil Twilight 6:37 AM CDT 8:30 PM CDT
Nautical Twilight 6:06 AM CDT 9:01 PM CDT
Astronomical Twilight 5:34 AM CDT 9:33 PM CDT
Moon 11:42 AM CDT (8/30) 10:50 PM CDT (8/30)
Length of Visible Light 13h 52m
Length of Day
12h 59m
Waxing Crescent, 23% of the Moon is Illuminated
Aug 30
Waxing Crescent
Sep 2
First Quarter
Sep 8
Full
Sep 15
Last Quarter
Sep 24
New

Hourly Weather History & Observations

Time (CDT) Temp. Heat Index Dew Point Humidity Pressure Visibility Wind Dir Wind Speed Gust Speed Precip Events Conditions
12:15 AM 71.8 °F - 69.1 °F 91% 29.95 in 10.0 mi SSW 3.5 mph - N/A   Clear
12:35 AM 71.6 °F - 69.8 °F 94% 29.95 in 10.0 mi SSW 4.6 mph - N/A   Clear
12:55 AM 71.6 °F - 70.0 °F 95% 29.96 in 10.0 mi Calm Calm - N/A   Clear
1:15 AM 72.0 °F - 70.9 °F 96% 29.95 in 10.0 mi SSW 3.5 mph - N/A   Clear
1:35 AM 72.0 °F - 72.0 °F 100% 29.96 in 10.0 mi South 5.8 mph - N/A   Clear
1:55 AM 71.6 °F - 71.6 °F 100% 29.95 in 10.0 mi SSW 4.6 mph - N/A   Clear
2:15 AM 71.6 °F - 71.6 °F 100% 29.95 in 10.0 mi South 3.5 mph - N/A   Clear
2:35 AM 71.8 °F - 71.8 °F 100% 29.95 in 10.0 mi Calm Calm - N/A   Clear
2:55 AM 72.0 °F - 72.0 °F 100% 29.96 in 10.0 mi Calm Calm - N/A   Clear
3:15 AM 71.6 °F - 71.6 °F 100% 29.96 in 10.0 mi Calm Calm - N/A   Clear
3:35 AM 71.6 °F - 71.6 °F 100% 29.96 in 10.0 mi Calm Calm - N/A   Clear
3:55 AM 70.7 °F - 70.7 °F 100% 29.97 in 10.0 mi Calm Calm - N/A   Clear
4:15 AM 71.6 °F - 71.6 °F 100% 29.97 in 10.0 mi Calm Calm - N/A   Clear
4:35 AM 71.2 °F - 71.2 °F 100% 29.97 in 10.0 mi SW 3.5 mph - N/A   Clear
4:55 AM 71.1 °F - 71.1 °F 100% 29.97 in 10.0 mi Calm Calm - N/A   Clear
5:15 AM 70.9 °F - 70.9 °F 100% 29.97 in 10.0 mi WSW 5.8 mph - N/A   Clear
5:35 AM 70.7 °F - 70.7 °F 100% 29.97 in 10.0 mi Calm Calm - N/A   Clear
5:55 AM 69.8 °F - 69.8 °F 100% 29.97 in 10.0 mi SW 4.6 mph - N/A   Clear
6:15 AM 69.6 °F - 69.6 °F 100% 29.97 in 7.0 mi WSW 3.5 mph - N/A   Clear
6:35 AM 68.4 °F - 68.4 °F 100% 29.97 in 7.0 mi Calm Calm - N/A   Clear
6:55 AM 67.8 °F - 67.8 °F 100% 29.98 in 5.0 mi WNW 5.8 mph - N/A   Clear
7:15 AM 67.1 °F - 67.1 °F 100% 29.98 in 4.0 mi West 5.8 mph - N/A   Clear
7:35 AM 67.5 °F - 67.5 °F 100% 29.98 in 4.0 mi West 3.5 mph - N/A   Clear
7:55 AM 68.4 °F - 68.4 °F 100% 29.98 in 4.0 mi Calm Calm - N/A   Clear
8:15 AM 69.8 °F - 69.8 °F 100% 29.98 in 7.0 mi Calm Calm - N/A   Clear
8:35 AM 71.6 °F - 70.7 °F 97% 29.99 in 10.0 mi Calm Calm - N/A   Clear
8:55 AM 72.7 °F - 72.0 °F 98% 29.99 in 10.0 mi South 3.5 mph - N/A   Clear
9:15 AM 74.3 °F - 71.8 °F 92% 29.99 in 10.0 mi SSW 5.8 mph - N/A   Clear
9:35 AM 75.9 °F - 71.2 °F 85% 29.99 in 10.0 mi SW 3.5 mph - N/A   Clear
9:55 AM 77.0 °F - 69.6 °F 78% 30.00 in 10.0 mi West 3.5 mph - N/A   Clear
10:15 AM 78.6 °F - 69.1 °F 72% 30.00 in 10.0 mi WSW 3.5 mph - N/A   Clear
10:35 AM 80.2 °F 83.2 °F 69.3 °F 69% 30.00 in 10.0 mi SW 3.5 mph - N/A   Clear
10:55 AM 82.0 °F 84.9 °F 68.0 °F 62% 30.00 in 10.0 mi NW 3.5 mph - N/A   Clear
11:15 AM 83.5 °F 86.2 °F 67.1 °F 58% 30.00 in 10.0 mi Calm Calm - N/A   Clear
11:35 AM 85.8 °F 86.8 °F 63.3 °F 47% 29.99 in 10.0 mi NNW 3.5 mph - N/A   Clear
11:55 AM 88.3 °F 89.9 °F 64.6 °F 45% 29.99 in 10.0 mi Calm Calm - N/A   Clear
12:15 PM 87.4 °F 87.7 °F 61.7 °F 42% 29.98 in 10.0 mi Calm Calm - N/A   Clear
12:35 PM 88.3 °F 88.6 °F 61.9 °F 41% 29.98 in 10.0 mi SSW 3.5 mph - N/A   Clear
12:55 PM 89.8 °F 89.7 °F 61.3 °F 38% 29.97 in 10.0 mi Calm Calm - N/A   Clear
1:15 PM 90.7 °F 91.3 °F 62.2 °F 39% 29.97 in 10.0 mi SW 3.5 mph - N/A   Clear
1:35 PM 90.9 °F 90.0 °F 58.6 °F 34% 29.97 in 10.0 mi West 5.8 mph - N/A   Clear
1:55 PM 91.4 °F 90.4 °F 58.8 °F 33% 29.96 in 10.0 mi SW 5.8 mph - N/A   Clear
2:15 PM 91.9 °F 91.2 °F 59.2 °F 33% 29.95 in 10.0 mi WSW 4.6 mph - N/A   Clear
3:15 PM 93.2 °F 92.6 °F 59.4 °F 32% 29.92 in 10.0 mi SW 3.5 mph - N/A   Clear
3:35 PM 95.0 °F 93.4 °F 56.5 °F 27% 29.92 in 10.0 mi Calm Calm - N/A   Clear
3:55 PM 95.0 °F 93.0 °F 55.6 °F 26% 29.91 in 10.0 mi NE 4.6 mph - N/A   Clear
4:15 PM 95.2 °F 93.3 °F 55.0 °F 26% 29.90 in 10.0 mi ESE 3.5 mph - N/A   Clear
4:35 PM 96.1 °F 94.5 °F 56.3 °F 26% 29.90 in 10.0 mi Calm Calm - N/A   Clear
4:55 PM 94.5 °F 93.0 °F 56.5 °F 28% 29.89 in 10.0 mi SSW 5.8 mph - N/A   Clear
5:15 PM 94.8 °F 93.8 °F 57.9 °F 29% 29.89 in 10.0 mi SSE 3.5 mph - N/A   Clear
5:35 PM 95.7 °F 94.3 °F 56.5 °F 27% 29.89 in 10.0 mi ESE 5.8 mph - N/A   Clear
5:55 PM 95.0 °F 93.4 °F 55.9 °F 27% 29.88 in 10.0 mi Calm Calm - N/A   Clear
6:15 PM 94.5 °F 93.0 °F 56.5 °F 28% 29.88 in 10.0 mi ESE 8.1 mph - N/A   Clear
6:35 PM 94.1 °F 92.8 °F 57.0 °F 29% 29.89 in 10.0 mi East 6.9 mph - N/A   Clear
6:55 PM 93.2 °F 91.6 °F 56.1 °F 29% 29.89 in 10.0 mi East 8.1 mph - N/A   Clear
7:15 PM 92.3 °F 90.5 °F 55.6 °F 29% 29.89 in 10.0 mi East 8.1 mph - N/A   Clear
7:35 PM 90.7 °F 89.0 °F 55.9 °F 31% 29.89 in 10.0 mi East 4.6 mph - N/A   Clear
7:55 PM 89.2 °F 87.7 °F 56.8 °F 33% 29.90 in 10.0 mi SE 5.8 mph - N/A   Clear
8:15 PM 87.3 °F 87.5 °F 61.7 °F 42% 29.90 in 10.0 mi ESE 3.5 mph - N/A   Clear
8:35 PM 84.9 °F 86.6 °F 65.1 °F 51% 29.90 in 10.0 mi SSE 3.5 mph - N/A   Clear
8:55 PM 84.0 °F 86.0 °F 65.8 °F 54% 29.90 in 10.0 mi SSE 4.6 mph - N/A   Clear
9:15 PM 83.5 °F 85.5 °F 66.0 °F 55% 29.91 in 10.0 mi SSE 5.8 mph - N/A   Clear
9:35 PM 83.1 °F 85.0 °F 65.7 °F 55% 29.91 in 10.0 mi SSE 5.8 mph - N/A   Clear
9:55 PM 81.3 °F 83.2 °F 65.5 °F 58% 29.92 in 10.0 mi SSE 3.5 mph - N/A   Clear
10:15 PM 80.6 °F 82.4 °F 64.9 °F 59% 29.92 in 10.0 mi SSE 4.6 mph - N/A   Clear
10:35 PM 80.6 °F 82.3 °F 64.4 °F 58% 29.92 in 10.0 mi SSE 4.6 mph - N/A   Clear
10:55 PM 79.3 °F - 64.4 °F 60% 29.92 in 10.0 mi SSE 4.6 mph - N/A   Clear
11:15 PM 78.4 °F - 63.9 °F 61% 29.93 in 10.0 mi SSE 4.6 mph - N/A   Clear
11:35 PM 78.8 °F - 63.7 °F 60% 29.93 in 10.0 mi SE 5.8 mph - N/A   Clear
11:55 PM 77.5 °F - 63.9 °F 63% 29.92 in 10.0 mi SSE 5.8 mph - N/A   Clear